Location: *
(34.6780°N, 135.8310°E)
Time: 19:18:38
(UTC+00:00)

Cosmos 2181 Rocket - Pass Details

Date: 18 October 2019
Orbit: 952 x 1015 km, 82.9° (Epoch: 10 November)

Event Time Altitude Azimuth Distance (km) Brightness Sun altitude
Rises 18:41:17 0° 354° (N) 3,723 7.1 -30.2°
Reaches altitude 10° 18:43:50 10° 356° (N) 2,762 6.4 -29.7°
Maximum altitude 18:50:11 83° 84° (E) 992 4.0 -28.4°
Drops below altitude 10° 18:56:24 10° 172° (S) 2,702 6.3 -27.1°
Sets 18:58:52 0° 173° (S) 3,637 7.0 -26.6°
